208P/McMillan (2016)

Japanese version
Home page
Updated on May 22, 2017

---------------------------------------------------------------------

* Profile

* Pictures

* Orbital Elements

Epoch 2016 June 21.0 TT = JDT 2457560.5
T 2016 July 1.79317 TT                                  MPCW
q   2.5446400            (2000.0)            P               Q
n   0.12079799     Peri.  310.51296     +0.97274961     +0.22732457
a   4.0528722      Node    36.41454     -0.18261552     +0.87242534
e   0.3721391      Incl.    4.40812     -0.14286275     +0.43266334
P   8.16
From 143 observations 2000 Sept. 23-2016 Aug. 2, mean residual 0".7.

* Magnitudes Graph

        m1 = 12.7 + 5 log d + 10.0 log r

---------------------------------------------------------------------

The orbital elements are published on M.P.E.C. 2016-Q04.
The magnitudes graphs are made with Comet for Windows.

---------------------------------------------------------------------

Copyright(C) Seiichi Yoshida (comet@aerith.net). All rights reserved.